Weather in Leningradskaya

Russia / Krasnodar Krai     46°19′13″N   39°23′34″E
temp.,
°C
wind,
m/s
gust,
m/s
humid.,
%
clouds,
%
prec.,
mm/h
press.,
hPa
HPBL,
m
29 may, sun
sun2900:00+15n22770 0.0 101415
03:00+14ene2279100 0.0 101411
06:00+16ese337387 0.0 101474
09:00+21e225831 0.0 1014454
12:00+25ese23555 0.0 10141247
15:00+27sw23451 0.0 10132114
18:00+26w23585 0.0 1014181
21:00+18n34760 0.0 101561
30 may, mon
mon3000:00+17nne33740 0.0 101527
03:00+16ne33790 0.0 101537
06:00+17ne35830 0.0 1016123
09:00+23ene45660 0.0 1016500
12:00+27e34505 0.0 10151147
15:00+29ese454864 0.0 10141802
18:00+28ese35615 0.0 1013237
21:00+22e467315 0.0 101495
31 may, tue
tue3100:00+20e486754 0.0 1013136
03:00+19e377172 0.0 1013104
06:00+18e39694 0.0 1013157
09:00+25ese475527 0.0 1013388
12:00+30e453993 0.0 10131114
15:00+30ene4536100 0.0 10131547
18:00+27ne365885 0.0 1012139
21:00+22ene4559100 0.0 101267
1 june, wed
wed100:00+21ene225899 0.0 101315
03:00+19ne226096 0.0 101321
06:00+20ese237656 0.0 101369
09:00+26sse23645 0.0 1014475
12:00+29ese23495 0.0 10141087
15:00+31e234212 0.0 10131773
18:00+28ese584942 0.0 1014306
21:00+23ene2252100 0.0 101411
2 june, thu
thu200:00+21ene3353100 0.0 101426
03:00+20nne2251100 0.0 101411
06:00+20se005866 0.0 101411
09:00+25wsw224795 0.0 1015360
12:00+29wsw1139100 0.0 1015928
15:00+30s11365 0.0 10141400
18:00+30ese22505 0.0 1014283
21:00+22nnw227836 0.6 101516